Weather History for Gwinn, MI

Change the Weather History Date:

Tuesday, June 18, 2013

  Actual Average (KESC) Record (KESC)
Temperature  
Mean Temperature 50 °F -  
Max Temperature 66 °F 69 °F 83 °F (1984)
Min Temperature 35 °F 51 °F 39 °F (2013)
Degree Days  
Heating Degree Days 14    
Moisture  
Dew Point 37 °F    
Average Humidity 67    
Maximum Humidity 93    
Minimum Humidity 32    
Precipitation  
Precipitation 0.00 in - - ()
Sea Level Pressure  
Sea Level Pressure 30.12 in    
Wind  
Wind Speed 3 mph (NNE)    
Max Wind Speed 12 mph    
Max Gust Speed -    
Visibility 10 miles    
Events      
Averages and records for this station are not official NWS values.
T = Trace of Precipitation, MM = Missing Value Source: NWS Daily Summary

Daily Weather History Graph

Daily Weather History Graph

Search for Another Location

Airport:

Trip Planner

Search our weather history database for the weather conditions in past years. The results will help you decide how hot, cold, wet, or windy it might be!

Date:

Astronomy

Jun. 18, 2013 Rise Set
Actual Time 5:56 AM EDT 9:44 PM EDT
Civil Twilight 5:17 AM EDT 10:23 PM EDT
Nautical Twilight 4:25 AM EDT 11:16 PM EDT
Astronomical Twilight 3:09 AM EDT 12:32 AM EDT
Moon 4:15 PM EDT (6/18) 2:20 AM EDT (6/18)
Length of Visible Light 17h 05m
Length of Day
15h 47m
Waxing Gibbous, 70% of the Moon is Illuminated
Jun 18
Waxing Gibbous
Jun 23
Full
Jun 30
Last Quarter
Jul 8
New
Jul 15
First Quarter

Hourly Weather History & Observations

Time (EDT) Temp. Windchill Dew Point Humidity Pressure Visibility Wind Dir Wind Speed Gust Speed Precip Events Conditions
12:17 AM 39.4 °F - 37.2 °F 92% 30.08 in 10.0 mi Calm Calm - N/A   Clear
12:36 AM 40.5 °F - 37.6 °F 89% 30.08 in 10.0 mi Calm Calm - N/A   Clear
12:57 AM 39.2 °F - 36.9 °F 91% 30.08 in 10.0 mi Calm Calm - N/A   Clear
1:17 AM 37.6 °F 35.1 °F 35.1 °F 91% 30.08 in 10.0 mi North 3.5 mph - N/A   Clear
1:36 AM 36.9 °F 34.3 °F 34.9 °F 93% 30.09 in 10.0 mi North 3.5 mph - N/A   Clear
1:57 AM 37.9 °F 33.5 °F 35.2 °F 90% 30.09 in 10.0 mi North 5.8 mph - N/A   Clear
2:16 AM 38.7 °F - 34.7 °F 86% 30.09 in 10.0 mi Calm Calm - N/A   Clear
2:36 AM 37.8 °F - 34.0 °F 86% 30.09 in 10.0 mi Calm Calm - N/A   Clear
2:57 AM 35.6 °F - 32.7 °F 89% 30.09 in 10.0 mi Calm Calm - N/A   Clear
3:16 AM 36.1 °F - 33.3 °F 89% 30.09 in 10.0 mi Calm Calm - N/A   Clear
3:37 AM 36.1 °F - 33.1 °F 89% 30.09 in 10.0 mi Calm Calm - N/A   Clear
3:57 AM 37.2 °F - 33.1 °F 85% 30.09 in 10.0 mi Calm Calm - N/A   Clear
4:17 AM 37.6 °F - 32.9 °F 83% 30.09 in 10.0 mi Calm Calm - N/A   Clear
4:36 AM 35.6 °F - 32.2 °F 87% 30.09 in 10.0 mi Calm Calm - N/A   Clear
4:57 AM 36.5 °F - 32.7 °F 86% 30.10 in 10.0 mi Calm Calm - N/A   Clear
5:17 AM 38.5 °F 35.0 °F 34.2 °F 84% 30.10 in 10.0 mi North 4.6 mph - N/A   Clear
5:36 AM 40.5 °F 37.3 °F 34.7 °F 80% 30.11 in 10.0 mi North 4.6 mph - N/A   Clear
5:57 AM 41.5 °F - 35.2 °F 78% 30.11 in 10.0 mi Calm Calm - N/A   Clear
6:55 AM 42.8 °F 38.6 °F 37.4 °F 81% 30.13 in 10.0 mi NNE 6.9 mph - N/A   Clear
7:55 AM 48.2 °F - 39.2 °F 71% 30.14 in 10.0 mi NNE 11.5 mph - N/A   Clear
8:50 AM 50.0 °F - 39.2 °F 66% 30.15 in 10.0 mi NNE 8.1 mph - N/A   Clear
9:55 AM 53.6 °F - 41.0 °F 62% 30.16 in 10.0 mi NE 8.1 mph - N/A   Clear
10:55 AM 57.2 °F - 41.0 °F 55% 30.16 in 10.0 mi NNE 6.9 mph - N/A   Clear
11:50 AM 59.0 °F - 39.2 °F 48% 30.17 in 10.0 mi NE 9.2 mph - N/A   Clear
12:50 PM 60.8 °F - 39.2 °F 45% 30.17 in 10.0 mi ENE 8.1 mph - N/A   Clear
1:50 PM 62.6 °F - 37.4 °F 39% 30.16 in 10.0 mi ENE 11.5 mph - N/A   Clear
2:50 PM 64.4 °F - 37.4 °F 37% 30.15 in 10.0 mi North 4.6 mph - N/A   Clear
3:50 PM 66.2 °F - 35.6 °F 32% 30.15 in 10.0 mi ENE 10.4 mph - N/A   Clear
4:55 PM 64.4 °F - 35.6 °F 34% 30.14 in 10.0 mi NE 5.8 mph - N/A   Clear
5:50 PM 64.4 °F - 37.4 °F 37% 30.14 in 10.0 mi North 6.9 mph - N/A   Clear
6:55 PM 64.4 °F - 35.6 °F 34% 30.13 in 10.0 mi ENE 9.2 mph - N/A   Clear
7:50 PM 62.6 °F - 35.6 °F 37% 30.13 in 10.0 mi ENE 8.1 mph - N/A   Clear
8:50 PM 60.8 °F - 37.4 °F 42% 30.12 in 10.0 mi NE 5.8 mph - N/A   Clear
9:50 PM 57.2 °F - 39.2 °F 51% 30.11 in 10.0 mi Calm Calm - N/A   Clear
10:16 PM 56.5 °F - 39.4 °F 53% 30.11 in 10.0 mi Calm Calm - N/A   Clear
10:37 PM 55.8 °F - 39.2 °F 54% 30.12 in 10.0 mi Calm Calm - N/A   Clear
10:56 PM 55.6 °F - 39.0 °F 54% 30.12 in 10.0 mi Calm Calm - N/A   Clear
11:17 PM 54.3 °F - 40.1 °F 59% 30.11 in 10.0 mi Calm Calm - N/A   Clear
11:36 PM 52.9 °F - 40.5 °F 63% 30.11 in 10.0 mi Calm Calm - N/A   Clear
11:57 PM 51.3 °F - 39.6 °F 64% 30.11 in 10.0 mi Calm Calm - N/A   Clear